This demonstration page uses our WeatherBlox Daily Observations layout. Learn more.

Left ArrowRight Arrow

41.55636, -103.73856

Hourly Observations for November 3, 2019

Temp ( °F °C ) Dew Point ( °F °C ) Humidity (%) Winds ( mph kmh ) Pressure ( in mb ) Visibility ( mi km ) Precip ( " mm )
12:58 am 00:58 Mostly Cloudy 38 3.4 22 -5.3 53 53 WSW 6 9 30.24 1024 10 16.0934 N/A
1:58 am 01:58 Cloudy 37 2.8 23 -5 57 57 SSW 6 9 30.23 1024 10 16.0934 N/A
2:58 am 02:58 Mostly Cloudy 39 3.7 22 -5.8 50 50 WSW 3 6 30.18 1022 10 16.0934 N/A
3:58 am 03:58 Clear 36 2.4 21 -6.3 53 53 SSW 5 7 30.16 1021 10 16.0934 N/A
4:58 am 04:58 Clear 35 1.4 21 -6.1 58 58 SSW 8 13 30.14 1021 10 16.0934 N/A
5:58 am 05:58 Clear 34 1 20 -6.4 58 58 SSW 6 9 30.12 1020 10 16.0934 N/A
6:58 am 06:58 Clear 32 -0.1 20 -6.4 63 63 SSW 10 17 30.1 1019 10 16.0934 N/A
7:58 am 07:58 Clear 34 1.2 15 -9.4 46 46 N N/A 30.06 1018 10 16.0934 N/A
8:58 am 08:58 Clear 34 1.3 13 -10.7 41 41 WSW 3 6 30.04 1017 10 16.0934 N/A
9:58 am 09:58 Mostly Clear 33 0.7 12 -11 42 42 SSW 3 6 30.01 1016 10 16.0934 N/A
10:58 am 10:58 Clear 34 1.1 14 -10.2 43 43 SW 3 6 30.01 1016 10 16.0934 N/A
11:58 am 11:58 Mostly Clear 37 2.9 18 -7.9 45 45 W 12 19 30.01 1016 10 16.0934 N/A
12:58 pm 12:58 Mostly Clear 32 0.2 16 -9 50 50 WNW 5 7 30.04 1017 10 16.0934 N/A
1:58 pm 13:58 Mostly Sunny 33 0.8 18 -7.9 53 53 W 10 17 30.04 1017 10 16.0934 N/A
2:58 pm 14:58 Sunny 38 3.4 19 -7 47 47 W 8 13 30.04 1017 10 16.0934 N/A
3:58 pm 15:58 Mostly Cloudy 47 8.3 16 -8.7 29 29 WNW 13 20 30.02 1017 10 16.0934 N/A
4:58 pm 16:58 Mostly Cloudy 49 9.2 16 -9.1 27 27 NW 17 28 30.02 1017 10 16.0934 N/A
5:58 pm 17:58 Partly Cloudy 50 10.1 17 -8.3 27 27 NNW 18 30 30.04 1017 10 16.0934 N/A
6:58 pm 18:58 Mostly Sunny 51 10.6 17 -8.1 26 26 NW 14 22 30 1016 10 16.0934 N/A
7:59 pm 19:59 Sunny 51 10.8 19 -7.5 27 27 NW 14 22 29.98 1015 10 16.0934 N/A
8:58 pm 20:58 Mostly Cloudy 51 10.4 19 -7 29 29 N 13 20 29.97 1015 10 16.0934 N/A
9:58 pm 21:58 Mostly Sunny 50 10 20 -6.6 31 31 NNW 8 13 29.98 1015 10 16.0934 N/A
10:58 pm 22:58 Mostly Cloudy 47 8.6 21 -5.9 36 36 NNW 8 13 29.99 1016 10 16.0934 N/A
11:58 pm 23:58 Cloudy 43 6.2 27 -2.9 52 52 N 6 9 30.01 1016 10 16.0934 N/A

Powered by AerisWeather